01-04-2023, 00:00:02,    301,    0.0,    7.5,   0.00,   0.00,  997.7,    0.3, -999.0
01-04-2023, 00:00:12,    301,    0.7,    7.6,   0.00,   0.00,  997.8,    0.5, -999.0
01-04-2023, 00:00:22,    301,    0.9,    7.7,   0.00,   0.00,  997.8,    0.4, -999.0
01-04-2023, 00:00:32,    301,    0.7,    7.7,   0.00,   0.00,  997.8,    0.5, -999.0
01-04-2023, 00:00:42,    300,    0.1,    7.6,   0.00,   0.00,  997.8,    0.3, -999.0
01-04-2023, 00:00:52,    300,    0.0,    7.6,   0.00,   0.00,  997.7,    0.2, -999.0
01-04-2023, 00:01:02,    301,    0.0,    7.6,   0.00,   0.00,  997.7,    0.5, -999.0
01-04-2023, 00:01:12,    300,    0.0,    7.6,   0.00,   0.00,  997.7,    0.4, -999.0
01-04-2023, 00:01:22,    300,    0.0,    7.5,   0.00,   0.00,  997.7,    0.4, -999.0
01-04-2023, 00:01:32,    300,    0.0,    7.6,   0.00,   0.00,  997.7,    0.5, -999.0
01-04-2023, 00:01:42,    304,    0.2,    7.6,   0.00,   0.00,  997.8,    0.6, -999.0
01-04-2023, 00:01:52,    300,    0.0,    7.6,   0.00,   0.00,  997.8,    0.6, -999.0
01-04-2023, 00:02:02,    301,    0.0,    7.6,   0.00,   0.00,  997.7,    0.5, -999.0
01-04-2023, 00:02:12,    301,    0.8,    7.6,   0.00,   0.00,  997.8,    0.6, -999.0
01-04-2023, 00:02:22,    300,    0.0,    7.6,   0.00,   0.00,  997.7,    0.1, -999.0
01-04-2023, 00:02:32,    300,    0.0,    7.6,   0.00,   0.00,  997.7,    0.5, -999.0
01-04-2023, 00:02:42,    301,    0.0,    7.6,   0.00,   0.00,  997.7,    0.6, -999.0
01-04-2023, 00:02:52,    301,    0.0,    7.5,   0.00,   0.00,  997.7,    0.2, -999.0
01-04-2023, 00:03:02,    300,    0.7,    7.6,   0.00,   0.00,  997.8,    0.3, -999.0
01-04-2023, 00:03:12,    300,    0.0,    7.6,   0.00,   0.00,  997.7,    0.4, -999.0
01-04-2023, 00:03:22,    301,    0.0,    7.5,   0.00,   0.00,  997.7,    0.4, -999.0
01-04-2023, 00:03:32,    300,    0.0,    7.6,   0.00,   0.00,  997.7,    0.2, -999.0
01-04-2023, 00:03:42,    301,    0.0,    7.6,   0.00,   0.00,  997.7,    0.5, -999.0
01-04-2023, 00:03:52,    301,    0.4,    7.6,   0.00,   0.00,  997.8,    0.5, -999.0
01-04-2023, 00:04:02,    301,    0.5,    7.7,   0.00,   0.00,  997.8,    0.3, -999.0
01-04-2023, 00:04:12,    295,    0.0,    7.6,   0.00,   0.00,  997.7,    0.4, -999.0
01-04-2023, 00:04:21,    301,    0.6,    7.7,   0.00,   0.00,  997.9,    0.3, -999.0
01-04-2023, 00:04:32,    299,    0.9,    7.7,   0.00,   0.00,  997.8,    0.5, -999.0
01-04-2023, 00:04:42,    299,    1.4,    7.6,   0.00,   0.00,  997.8,    0.6, -999.0
01-04-2023, 00:04:52,    299,    1.4,    7.6,   0.00,   0.00,  997.8,    0.5, -999.0
01-04-2023, 00:05:01,    299,    1.2,    7.7,   0.00,   0.00,  997.8,    0.6, -999.0
01-04-2023, 00:05:12,    299,    0.0,    7.6,   0.00,   0.00,  997.8,    0.2, -999.0
01-04-2023, 00:05:22,    299,    0.0,    7.6,   0.00,   0.00,  997.7,    0.5, -999.0
01-04-2023, 00:05:31,    299,    0.1,    7.6,   0.00,   0.00,  997.8,    0.7, -999.0
01-04-2023, 00:05:41,    298,    0.0,    7.6,   0.00,   0.00,  997.8,    0.4, -999.0
01-04-2023, 00:05:52,    258,    0.5,    7.6,   0.00,   0.00,  997.8,    0.1, -999.0
01-04-2023, 00:06:01,    258,    0.0,    7.7,   0.00,   0.00,  997.8,    0.4, -999.0
01-04-2023, 00:06:11,    258,    0.1,    7.7,   0.00,   0.00,  997.8,    0.8, -999.0
01-04-2023, 00:06:22,    309,    0.8,    7.7,   0.00,   0.00,  997.9,    0.6, -999.0
01-04-2023, 00:06:32,    308,    1.3,    7.7,   0.00,   0.00,  997.8,    0.6, -999.0
01-04-2023, 00:06:41,    308,    0.6,    7.7,   0.00,   0.00,  997.8,    0.5, -999.0
01-04-2023, 00:06:51,    307,    0.0,    7.7,   0.00,   0.00,  997.7,    0.3, -999.0
01-04-2023, 00:07:02,    308,    0.0,    7.6,   0.00,   0.00,  997.8,    0.5, -999.0
01-04-2023, 00:07:11,    307,    0.0,    7.6,   0.00,   0.00,  997.7,    0.4, -999.0
01-04-2023, 00:07:21,    308,    0.0,    7.6,   0.00,   0.00,  997.7,    0.5, -999.0
01-04-2023, 00:07:31,    308,    0.0,    7.6,   0.00,   0.00,  997.7,    0.2, -999.0
01-04-2023, 00:07:42,    308,    0.1,    7.6,   0.00,   0.00,  997.8,    0.5, -999.0
01-04-2023, 00:07:51,    308,    0.1,    7.7,   0.00,   0.00,  997.8,    0.2, -999.0
01-04-2023, 00:08:01,    308,    0.3,    7.6,   0.00,   0.00,  997.8,    0.5, -999.0
01-04-2023, 00:08:11,    308,    0.3,    7.7,   0.00,   0.00,  997.8,    0.5, -999.0
01-04-2023, 00:08:21,    308,    0.1,    7.6,   0.00,   0.00,  997.8,    0.5, -999.0
01-04-2023, 00:08:31,    307,    0.1,    7.7,   0.00,   0.00,  997.8,    0.2, -999.0
01-04-2023, 00:08:41,    308,    0.0,    7.6,   0.00,   0.00,  997.7,    0.5, -999.0
01-04-2023, 00:08:51,    307,    0.4,    7.7,   0.00,   0.00,  997.8,    0.4, -999.0
01-04-2023, 00:09:01,    307,    0.0,    7.6,   0.00,   0.00,  997.7,    0.7, -999.0
01-04-2023, 00:09:11,    308,    0.1,    7.6,   0.00,   0.00,  997.8,    0.6, -999.0
01-04-2023, 00:09:21,    307,    0.2,    7.7,   0.00,   0.00,  997.8,    0.6, -999.0
01-04-2023, 00:09:31,    307,    0.3,    7.6,   0.00,   0.00,  997.8,    0.5, -999.0
01-04-2023, 00:09:41,    308,    0.2,    7.6,   0.00,   0.00,  997.8,    0.5, -999.0
01-04-2023, 00:09:51,    307,    0.0,    7.6,   0.00,   0.00,  997.7,    0.3, -999.0
01-04-2023, 00:10:01,    307,    0.3,    7.7,   0.00,   0.00,  997.8,    0.4, -999.0
01-04-2023, 00:10:11,    307,    0.3,    7.6,   0.00,   0.00,  997.8,    0.6, -999.0
01-04-2023, 00:10:21,    307,    0.1,    7.6,   0.00,   0.00,  997.8,    0.2, -999.0
01-04-2023, 00:10:31,    307,    0.0,    7.6,   0.00,   0.00,  997.8,    0.5, -999.0
01-04-2023, 00:10:41,    307,    0.0,    7.7,   0.00,   0.00,  997.7,    0.5, -999.0
01-04-2023, 00:10:51,    307,    0.0,    7.6,   0.00,   0.00,  997.8,    0.3, -999.0
01-04-2023, 00:11:01,    307,    0.4,    7.7,   0.00,   0.00,  997.9,    0.3, -999.0
01-04-2023, 00:11:11,    307,    0.6,    7.7,   0.00,   0.00,  997.9,    0.7, -999.0
01-04-2023, 00:11:21,    307,    0.5,    7.8,   0.00,   0.00,  997.8,    0.3, -999.0
01-04-2023, 00:11:31,    307,    0.0,    7.6,   0.00,   0.00,  997.7,    0.5, -999.0
01-04-2023, 00:11:41,    307,    0.0,    7.5,   0.00,   0.00,  997.7,    0.1, -999.0
01-04-2023, 00:11:51,    307,    0.0,    7.6,   0.00,   0.00,  997.8,    0.5, -999.0
01-04-2023, 00:12:01,    307,    0.0,    7.6,   0.00,   0.00,  997.7,    0.6, -999.0
01-04-2023, 00:12:11,    307,    0.0,    7.6,   0.00,   0.00,  997.7,    0.3, -999.0
01-04-2023, 00:12:21,    307,    0.0,    7.7,   0.00,   0.00,  997.8,    0.0, -999.0
01-04-2023, 00:12:31,    307,    0.0,    7.6,   0.00,   0.00,  997.8,    0.4, -999.0
01-04-2023, 00:12:41,    307,    0.0,    7.6,   0.00,   0.00,  997.7,    0.3, -999.0
01-04-2023, 00:12:51,    299,    0.4,    7.6,   0.00,   0.00,  997.8,    0.6, -999.0
01-04-2023, 00:13:01,    299,    0.2,    7.6,   0.00,   0.00,  997.8,    0.7, -999.0
01-04-2023, 00:13:11,    299,    0.0,    7.5,   0.00,   0.00,  997.8,    0.4, -999.0
01-04-2023, 00:13:21,    299,    0.1,    7.7,   0.00,   0.00,  997.8,    0.5, -999.0
01-04-2023, 00:13:31,    299,    0.2,    7.6,   0.00,   0.00,  997.8,    0.4, -999.0
01-04-2023, 00:13:41,    299,    0.5,    7.6,   0.00,   0.00,  997.9,    0.5, -999.0
01-04-2023, 00:13:51,    299,    0.0,    7.5,   0.00,   0.00,  997.8,    0.5, -999.0
01-04-2023, 00:14:01,    299,    0.0,    7.6,   0.00,   0.00,  997.8,    0.4, -999.0
01-04-2023, 00:14:11,    299,    0.0,    7.6,   0.00,   0.00,  997.8,    0.3, -999.0
01-04-2023, 00:14:21,    298,    0.0,    7.6,   0.00,   0.00,  997.7,    0.5, -999.0
01-04-2023, 00:14:30,    299,    0.0,    7.6,   0.00,   0.00,  997.8,    0.3, -999.0
01-04-2023, 00:14:41,    299,    0.0,    7.6,   0.00,   0.00,  997.8,    0.4, -999.0
01-04-2023, 00:14:51,    299,    0.0,    7.6,   0.00,   0.00,  997.8,    0.4, -999.0
01-04-2023, 00:15:01,    298,    0.0,    7.7,   0.00,   0.00,  997.8,    0.6, -999.0
01-04-2023, 00:15:10,    299,    0.0,    7.7,   0.00,   0.00,  997.8,    0.5, -999.0
01-04-2023, 00:15:21,    299,    0.0,    7.6,   0.00,   0.00,  997.8,    0.4, -999.0
01-04-2023, 00:15:31,    299,    0.0,    7.7,   0.00,   0.00,  997.8,    0.6, -999.0
01-04-2023, 00:15:40,    299,    0.0,    7.7,   0.00,   0.00,  997.8,    0.5, -999.0
01-04-2023, 00:15:50,    299,    0.0,    7.6,   0.00,   0.00,  997.8,    0.4, -999.0
01-04-2023, 00:16:01,    299,    0.2,    7.6,   0.00,   0.00,  997.8,    0.4, -999.0
01-04-2023, 00:16:11,    299,    0.2,    7.7,   0.00,   0.00,  997.9,    0.5, -999.0
01-04-2023, 00:16:20,    299,    0.0,    7.6,   0.00,   0.00,  997.8,    0.3, -999.0
01-04-2023, 00:16:30,    299,    0.0,    7.6,   0.00,   0.00,  997.8,    0.5, -999.0
01-04-2023, 00:16:41,    298,    0.0,    7.6,   0.00,   0.00,  997.8,    0.4, -999.0
01-04-2023, 00:16:50,    295,    0.4,    7.6,   0.00,   0.00,  997.9,    0.6, -999.0
01-04-2023, 00:17:00,    295,    1.1,    7.6,   0.00,   0.00,  997.9,    0.3, -999.0
01-04-2023, 00:17:10,    295,    0.0,    7.6,   0.00,   0.00,  997.8,    0.4, -999.0
01-04-2023, 00:17:21,    294,    0.3,    7.6,   0.00,   0.00,  997.9,    0.4, -999.0
01-04-2023, 00:17:30,    295,    0.1,    7.6,   0.00,   0.00,  997.9,    0.6, -999.0
01-04-2023, 00:17:40,    295,    0.0,    7.6,   0.00,   0.00,  997.9,    0.5, -999.0
01-04-2023, 00:17:50,    294,    0.0,    7.5,   0.00,   0.00,  997.8,    0.4, -999.0
01-04-2023, 00:18:00,    294,    0.0,    7.6,   0.00,   0.00,  997.8,    0.2, -999.0
01-04-2023, 00:18:10,    295,    0.0,    7.6,   0.00,   0.00,  997.8,    0.6, -999.0
01-04-2023, 00:18:20,    294,    0.0,    7.6,   0.00,   0.00,  997.8,    0.4, -999.0
01-04-2023, 00:18:30,    294,    0.0,    7.6,   0.00,   0.00,  997.8,    0.2, -999.0
01-04-2023, 00:18:40,    294,    0.0,    7.6,   0.00,   0.00,  997.8,    0.5, -999.0
01-04-2023, 00:18:50,    294,    0.4,    7.6,   0.00,   0.00,  998.0,    0.5, -999.0
01-04-2023, 00:19:00,    294,    0.4,    7.7,   0.00,   0.00,  998.0,    0.4, -999.0
01-04-2023, 00:19:10,    295,    0.0,    7.6,   0.00,   0.00,  997.8,    0.7, -999.0
01-04-2023, 00:19:20,    295,    0.1,    7.6,   0.00,   0.00,  997.9,    0.4, -999.0
01-04-2023, 00:19:30,    295,    0.0,    7.5,   0.00,   0.00,  997.9,    0.3, -999.0
01-04-2023, 00:19:40,    269,    0.8,    7.6,   0.00,   0.00,  998.0,    0.4, -999.0
01-04-2023, 00:19:50,    269,    1.6,    7.6,   0.00,   0.00,  998.0,    0.5, -999.0
01-04-2023, 00:20:00,    269,    0.5,    7.7,   0.00,   0.00,  998.0,    0.5, -999.0
01-04-2023, 00:20:10,    269,    0.4,    7.6,   0.00,   0.00,  998.0,    0.6, -999.0
01-04-2023, 00:20:20,    268,    0.1,    7.6,   0.00,   0.00,  997.9,    0.2, -999.0
01-04-2023, 00:20:30,    269,    0.1,    7.6,   0.00,   0.00,  997.9,    0.8, -999.0
01-04-2023, 00:20:40,    269,    0.7,    7.7,   0.00,   0.00,  998.0,    0.8, -999.0
01-04-2023, 00:20:50,    269,    0.9,    7.6,   0.00,   0.00,  998.0,    0.4, -999.0
01-04-2023, 00:21:00,    269,    0.3,    7.6,   0.00,   0.00,  998.0,    0.3, -999.0
01-04-2023, 00:21:10,    269,    0.0,    7.5,   0.00,   0.00,  997.9,    0.4, -999.0
01-04-2023, 00:21:20,    269,    0.2,    7.5,   0.00,   0.00,  997.9,    0.2, -999.0
01-04-2023, 00:21:30,    270,    0.7,    7.7,   0.00,   0.00,  998.0,    0.6, -999.0
01-04-2023, 00:21:40,    270,    0.1,    7.6,   0.00,   0.00,  997.9,    0.8, -999.0
01-04-2023, 00:21:50,    270,    0.1,    7.6,   0.00,   0.00,  997.9,    0.3, -999.0
01-04-2023, 00:22:00,    270,    0.3,    7.7,   0.00,   0.00,  998.0,    0.3, -999.0
01-04-2023, 00:22:10,    270,    0.0,    7.6,   0.00,   0.00,  997.9,    0.4, -999.0
01-04-2023, 00:22:20,    270,    0.0,    7.6,   0.00,   0.00,  997.9,    0.4, -999.0
01-04-2023, 00:22:30,    270,    0.0,    7.5,   0.00,   0.00,  997.9,    0.6, -999.0
01-04-2023, 00:22:40,    270,    0.0,    7.5,   0.00,   0.00,  997.9,    0.4, -999.0
01-04-2023, 00:22:50,    270,    0.0,    7.6,   0.00,   0.00,  997.9,    0.3, -999.0
01-04-2023, 00:23:00,    270,    0.0,    7.6,   0.00,   0.00,  997.9,    0.4, -999.0
01-04-2023, 00:23:10,    273,    0.0,    7.6,   0.00,   0.00,  997.9,    0.4, -999.0
01-04-2023, 00:23:20,    270,    0.0,    7.6,   0.00,   0.00,  997.9,    0.4, -999.0
01-04-2023, 00:23:30,    270,    0.0,    7.6,   0.00,   0.00,  997.9,    0.5, -999.0
01-04-2023, 00:23:40,    271,    0.0,    7.7,   0.00,   0.00,  997.9,    0.5, -999.0
01-04-2023, 00:23:50,    271,    0.0,    7.6,   0.00,   0.00,  997.9,    0.2, -999.0
01-04-2023, 00:24:00,    271,    0.0,    7.8,   0.00,   0.00,  997.9,    0.4, -999.0
01-04-2023, 00:24:09,    270,    0.0,    7.6,   0.00,   0.00,  997.9,    0.3, -999.0
01-04-2023, 00:24:20,    270,    0.0,    7.6,   0.00,   0.00,  997.9,    0.6, -999.0
01-04-2023, 00:24:30,    270,    0.0,    7.5,   0.00,   0.00,  997.9,    0.6, -999.0
01-04-2023, 00:24:40,    270,    0.0,    7.6,   0.00,   0.00,  997.9,    0.3, -999.0
01-04-2023, 00:24:49,    270,    0.0,    7.6,   0.00,   0.00,  997.9,    0.3, -999.0
01-04-2023, 00:25:00,    270,    0.0,    7.6,   0.00,   0.00,  997.9,    0.4, -999.0
01-04-2023, 00:25:10,    270,    0.0,    7.6,   0.00,   0.00,  997.9,    0.5, -999.0
01-04-2023, 00:25:19,    270,    0.0,    7.6,   0.00,   0.00,  997.9,    0.2, -999.0
01-04-2023, 00:25:29,    270,    0.0,    7.5,   0.00,   0.00,  997.9,    0.4, -999.0
01-04-2023, 00:25:40,    270,    0.0,    7.6,   0.00,   0.00,  997.9,    0.1, -999.0
01-04-2023, 00:25:50,    270,    0.0,    7.6,   0.00,   0.00,  997.9,    0.0, -999.0
01-04-2023, 00:25:59,    271,    0.0,    7.5,   0.00,   0.00,  997.9,    1.0, -999.0
01-04-2023, 00:26:09,    270,    0.0,    7.6,   0.00,   0.00,  997.9,    0.6, -999.0
01-04-2023, 00:26:20,    270,    0.0,    7.6,   0.00,   0.00,  997.9,    0.0, -999.0
01-04-2023, 00:26:29,    270,    0.0,    7.6,   0.00,   0.00,  997.9,    0.5, -999.0
01-04-2023, 00:26:39,    270,    0.0,    7.5,   0.00,   0.00,  997.9,    0.6, -999.0
01-04-2023, 00:26:50,    270,    0.0,    7.5,   0.00,   0.00,  997.9,    0.0, -999.0
01-04-2023, 00:26:59,    270,    0.0,    7.6,   0.00,   0.00,  997.9,    0.5, -999.0
01-04-2023, 00:27:09,    269,    0.9,    7.6,   0.00,   0.00,  998.0,    0.6, -999.0
01-04-2023, 00:27:19,    269,    1.2,    7.7,   0.00,   0.00,  998.1,    0.4, -999.0
01-04-2023, 00:27:30,    269,    0.8,    7.6,   0.00,   0.00,  998.0,    0.6, -999.0
01-04-2023, 00:27:39,    269,    0.4,    7.6,   0.00,   0.00,  998.0,    0.5, -999.0
01-04-2023, 00:27:49,    269,    0.2,    7.6,   0.00,   0.00,  998.0,    0.4, -999.0
01-04-2023, 00:27:59,    268,    0.7,    7.6,   0.00,   0.00,  998.0,    0.6, -999.0
01-04-2023, 00:28:09,    271,    1.3,    7.6,   0.00,   0.00,  998.0,    0.4, -999.0
01-04-2023, 00:28:19,    300,    1.1,    7.6,   0.00,   0.00,  998.0,    0.8, -999.0
01-04-2023, 00:28:29,    300,    1.0,    7.5,   0.00,   0.00,  998.1,    0.5, -999.0
01-04-2023, 00:28:39,    300,    0.3,    7.6,   0.00,   0.00,  998.0,    0.5, -999.0
01-04-2023, 00:28:49,    300,    0.0,    7.6,   0.00,   0.00,  997.9,    0.8, -999.0
01-04-2023, 00:28:59,    300,    0.0,    7.5,   0.00,   0.00,  997.9,    0.4, -999.0
01-04-2023, 00:29:09,    300,    0.0,    7.5,   0.00,   0.00,  997.9,    0.4, -999.0
01-04-2023, 00:29:19,    300,    0.0,    7.6,   0.00,   0.00,  997.9,    0.3, -999.0
01-04-2023, 00:29:29,    299,    0.0,    7.5,   0.00,   0.00,  997.9,    0.4, -999.0
01-04-2023, 00:29:39,    300,    0.0,    7.5,   0.00,   0.00,  998.0,    0.5, -999.0
01-04-2023, 00:29:49,    300,    0.0,    7.5,   0.00,   0.00,  997.9,    0.4, -999.0
01-04-2023, 00:29:59,    298,    0.9,    7.6,   0.00,   0.00,  998.1,    0.7, -999.0
01-04-2023, 00:30:09,    298,    0.6,    7.7,   0.00,   0.00,  998.0,    0.1, -999.0
01-04-2023, 00:30:19,    297,    0.2,    7.6,   0.00,   0.00,  998.0,    0.2, -999.0
01-04-2023, 00:30:29,    298,    0.0,    7.5,   0.00,   0.00,  998.0,    0.2, -999.0
01-04-2023, 00:30:39,    298,    0.5,    7.6,   0.00,   0.00,  998.0,    0.3, -999.0
01-04-2023, 00:30:49,    281,    0.9,    7.6,   0.00,   0.00,  998.1,    0.2, -999.0
01-04-2023, 00:30:59,    281,    0.3,    7.5,   0.00,   0.00,  998.1,    0.5, -999.0
01-04-2023, 00:31:09,    281,    0.0,    7.5,   0.00,   0.00,  998.0,    0.2, -999.0
01-04-2023, 00:31:19,    282,    0.9,    7.5,   0.00,   0.00,  998.1,    0.3, -999.0
01-04-2023, 00:31:29,    282,    0.5,    7.6,   0.00,   0.00,  998.1,    0.4, -999.0
01-04-2023, 00:31:39,    300,    1.7,    7.5,   0.00,   0.00,  998.1,    0.4, -999.0
01-04-2023, 00:31:49,    300,    1.0,    7.6,   0.00,   0.00,  998.1,    0.8, -999.0
01-04-2023, 00:31:59,    300,    0.7,    7.5,   0.00,   0.00,  998.1,    0.6, -999.0
01-04-2023, 00:32:09,    299,    0.3,    7.6,   0.00,   0.00,  998.0,    0.5, -999.0
01-04-2023, 00:32:19,    300,    0.3,    7.5,   0.00,   0.00,  998.0,    0.3, -999.0
01-04-2023, 00:32:29,    298,    0.8,    7.6,   0.00,   0.00,  998.1,    0.5, -999.0
01-04-2023, 00:32:39,    298,    0.5,    7.6,   0.00,   0.00,  998.1,    0.5, -999.0
01-04-2023, 00:32:49,    298,    0.1,    7.5,   0.00,   0.00,  998.0,    0.4, -999.0
01-04-2023, 00:32:59,    298,    0.4,    7.6,   0.00,   0.00,  998.0,    0.3, -999.0
01-04-2023, 00:33:08,    297,    1.0,    7.6,   0.00,   0.00,  998.1,    0.5, -999.0
01-04-2023, 00:33:19,    268,    1.7,    7.7,   0.00,   0.00,  998.1,    0.5, -999.0
01-04-2023, 00:33:29,    268,    2.0,    7.6,   0.00,   0.00,  998.1,    0.4, -999.0
01-04-2023, 00:33:39,    268,    1.2,    7.6,   0.00,   0.00,  998.1,    0.5, -999.0
01-04-2023, 00:33:49,    269,    1.3,    7.7,   0.00,   0.00,  998.1,    0.4, -999.0
01-04-2023, 00:33:59,    269,    0.8,    7.7,   0.00,   0.00,  998.1,    0.5, -999.0
01-04-2023, 00:34:09,    270,    0.4,    7.5,   0.00,   0.00,  998.0,    0.4, -999.0
01-04-2023, 00:34:18,    269,    0.1,    7.6,   0.00,   0.00,  998.0,    0.5, -999.0
01-04-2023, 00:34:29,    269,    0.2,    7.6,   0.00,   0.00,  998.1,    0.2, -999.0
01-04-2023, 00:34:39,    267,    0.5,    7.6,   0.00,   0.00,  998.1,    0.6, -999.0
01-04-2023, 00:34:48,    267,    0.0,    7.5,   0.00,   0.00,  998.0,    0.2, -999.0
01-04-2023, 00:34:58,    268,    1.1,    7.7,   0.00,   0.00,  998.1,    0.4, -999.0
01-04-2023, 00:35:09,    267,    0.9,    7.6,   0.00,   0.00,  998.1,    0.5, -999.0
01-04-2023, 00:35:19,    245,    0.4,    7.7,   0.00,   0.00,  998.1,    0.4, -999.0
01-04-2023, 00:35:28,    285,    1.7,    7.6,   0.00,   0.00,  998.2,    0.6, -999.0
01-04-2023, 00:35:38,    285,    2.2,    7.5,   0.00,   0.00,  998.1,    0.6, -999.0
01-04-2023, 00:35:49,    285,    2.0,    7.6,   0.00,   0.00,  998.1,    0.4, -999.0
01-04-2023, 00:35:58,    287,    1.2,    7.6,   0.00,   0.00,  998.2,    0.4, -999.0
01-04-2023, 00:36:08,    285,    0.7,    7.6,   0.00,   0.00,  998.2,    0.6, -999.0
01-04-2023, 00:36:18,    279,    1.0,    7.6,   0.00,   0.00,  998.1,    0.5, -999.0
01-04-2023, 00:36:29,    279,    1.1,    7.6,   0.00,   0.00,  998.2,    0.4, -999.0
01-04-2023, 00:36:38,    279,    0.4,    7.5,   0.00,   0.00,  998.1,    0.6, -999.0
01-04-2023, 00:36:48,    279,    0.5,    7.5,   0.00,   0.00,  998.1,    0.2, -999.0
01-04-2023, 00:36:59,    279,    0.2,    7.6,   0.00,   0.00,  998.2,    0.5, -999.0
01-04-2023, 00:37:08,    279,    0.0,    7.5,   0.00,   0.00,  998.1,    0.5, -999.0
01-04-2023, 00:37:18,    279,    0.5,    7.6,   0.00,   0.00,  998.2,    0.5, -999.0
01-04-2023, 00:37:28,    279,    0.7,    7.6,   0.00,   0.00,  998.2,    0.2, -999.0
01-04-2023, 00:37:38,    279,    0.1,    7.5,   0.00,   0.00,  998.1,    0.3, -999.0
01-04-2023, 00:37:48,    279,    1.5,    7.7,   0.00,   0.00,  998.2,    0.6, -999.0
01-04-2023, 00:37:58,    279,    0.6,    7.6,   0.00,   0.00,  998.2,    0.1, -999.0
01-04-2023, 00:38:08,    278,    0.7,    7.6,   0.00,   0.00,  998.2,    0.3, -999.0
01-04-2023, 00:38:18,    279,    0.8,    7.6,   0.00,   0.00,  998.2,    0.3, -999.0
01-04-2023, 00:38:28,    278,    0.4,    7.6,   0.00,   0.00,  998.1,    0.4, -999.0
01-04-2023, 00:38:38,    278,    0.0,    7.5,   0.00,   0.00,  998.1,    0.5, -999.0
01-04-2023, 00:38:48,    278,    0.2,    7.5,   0.00,   0.00,  998.1,    0.6, -999.0
01-04-2023, 00:38:58,    278,    0.1,    7.5,   0.00,   0.00,  998.1,    0.5, -999.0
01-04-2023, 00:39:08,    278,    0.5,    7.5,   0.00,   0.00,  998.2,    0.2, -999.0
01-04-2023, 00:39:18,    274,    0.5,    7.5,   0.00,   0.00,  998.1,    0.5, -999.0
01-04-2023, 00:39:28,    269,    1.5,    7.6,   0.00,   0.00,  998.2,    0.3, -999.0
01-04-2023, 00:39:38,    269,    0.6,    7.6,   0.00,   0.00,  998.2,    0.2, -999.0
01-04-2023, 00:39:48,    269,    0.1,    7.5,   0.00,   0.00,  998.1,    0.6, -999.0
01-04-2023, 00:39:58,    269,    0.0,    7.5,   0.00,   0.00,  998.1,    0.5, -999.0
01-04-2023, 00:40:08,    269,    0.3,    7.5,   0.00,   0.00,  998.1,    0.6, -999.0
01-04-2023, 00:40:18,    269,    0.0,    7.5,   0.00,   0.00,  998.1,    0.3, -999.0
01-04-2023, 00:40:28,    270,    0.0,    7.5,   0.00,   0.00,  998.1,    0.5, -999.0
01-04-2023, 00:40:38,    270,    0.5,    7.5,   0.00,   0.00,  998.1,    0.5, -999.0
01-04-2023, 00:40:48,    270,    1.7,    7.7,   0.00,   0.00,  998.2,    0.3, -999.0
01-04-2023, 00:40:58,    269,    0.6,    7.5,   0.00,   0.00,  998.2,    0.6, -999.0
01-04-2023, 00:41:08,    269,    0.0,    7.5,   0.00,   0.00,  998.1,    0.0, -999.0
01-04-2023, 00:41:18,    269,    0.0,    7.5,   0.00,   0.00,  998.1,    0.3, -999.0
01-04-2023, 00:41:28,    270,    0.0,    7.4,   0.00,   0.00,  998.1,    0.2, -999.0
01-04-2023, 00:41:38,    270,    0.6,    7.6,   0.00,   0.00,  998.2,    0.5, -999.0
01-04-2023, 00:41:48,    270,    0.9,    7.6,   0.00,   0.00,  998.2,    0.3, -999.0
01-04-2023, 00:41:58,    270,    0.5,    7.5,   0.00,   0.00,  998.2,    0.5, -999.0
01-04-2023, 00:42:08,    271,    0.2,    7.5,   0.00,   0.00,  998.1,    0.4, -999.0
01-04-2023, 00:42:18,    271,    0.0,    7.5,   0.00,   0.00,  998.1,    0.8, -999.0
01-04-2023, 00:42:28,    270,    0.3,    7.5,   0.00,   0.00,  998.1,    0.4, -999.0
01-04-2023, 00:42:38,    283,    1.1,    7.6,   0.00,   0.00,  998.2,    0.5, -999.0
01-04-2023, 00:42:48,    298,    0.9,    7.5,   0.00,   0.00,  998.2,    0.6, -999.0
01-04-2023, 00:42:58,    301,    0.1,    7.5,   0.00,   0.00,  998.2,    0.8, -999.0
01-04-2023, 00:43:08,    298,    0.0,    7.5,   0.00,   0.00,  998.1,    0.4, -999.0
01-04-2023, 00:43:17,    298,    0.1,    7.5,   0.00,   0.00,  998.1,    0.2, -999.0
01-04-2023, 00:43:28,    295,    0.4,    7.5,   0.00,   0.00,  998.2,    0.5, -999.0
01-04-2023, 00:43:38,    295,    0.2,    7.6,   0.00,   0.00,  998.1,    0.3, -999.0
01-04-2023, 00:43:48,    295,    0.2,    7.5,   0.00,   0.00,  998.2,    0.3, -999.0
01-04-2023, 00:43:57,    295,    0.7,    7.6,   0.00,   0.00,  998.2,    0.4, -999.0
01-04-2023, 00:44:08,    262,    0.5,    7.6,   0.00,   0.00,  998.2,    0.7, -999.0
01-04-2023, 00:44:18,    262,    0.9,    7.6,   0.00,   0.00,  998.2,    0.4, -999.0
01-04-2023, 00:44:27,    295,    1.6,    7.5,   0.00,   0.00,  998.2,    0.4, -999.0
01-04-2023, 00:44:38,    300,    1.2,    7.6,   0.00,   0.00,  998.2,    0.5, -999.0
01-04-2023, 00:44:48,    300,    0.5,    7.6,   0.00,   0.00,  998.2,    0.3, -999.0
01-04-2023, 00:44:57,    300,    0.0,    7.5,   0.00,   0.00,  998.1,    0.7, -999.0
01-04-2023, 00:45:07,    294,    0.3,    7.5,   0.00,   0.00,  998.2,    0.3, -999.0
01-04-2023, 00:45:18,    293,    0.0,    7.6,   0.00,   0.00,  998.1,    0.5, -999.0
01-04-2023, 00:45:28,    293,    0.0,    7.5,   0.00,   0.00,  998.1,    0.3, -999.0
01-04-2023, 00:45:37,    293,    0.0,    7.5,   0.00,   0.00,  998.1,    0.5, -999.0
01-04-2023, 00:45:47,    293,    0.0,    7.4,   0.00,   0.00,  998.1,    0.4, -999.0
01-04-2023, 00:45:58,    293,    0.0,    7.4,   0.00,   0.00,  998.1,    0.4, -999.0
01-04-2023, 00:46:07,    294,    0.3,    7.6,   0.00,   0.00,  998.2,    0.4, -999.0
01-04-2023, 00:46:17,    293,    1.1,    7.6,   0.00,   0.00,  998.2,    0.4, -999.0
01-04-2023, 00:46:27,    293,    1.4,    7.5,   0.00,   0.00,  998.2,    0.5, -999.0
01-04-2023, 00:46:38,    293,    0.9,    7.6,   0.00,   0.00,  998.2,    0.6, -999.0
01-04-2023, 00:46:47,    293,    1.2,    7.5,   0.00,   0.00,  998.2,    0.4, -999.0